KG6SIB Weather Reports


time (UTC)temp
F
wind
direction
speed
knots
gust
knots
rain 1hr
in
rain 24hr
in
rain mn
in
humidity
%
barometer
mb
20260831110240 57 44 5.2 6.1 0.00 0.00 0.00 34 1014.9
20260831105751 57 54 2.6 6.1 0.00 0.00 0.00 34 1015.2
20260831105251 57 29 4.3 6.1 0.00 0.00 0.00 35 1015.2
20260831104751 57 36 2.6 6.1 0.00 0.00 0.00 35 1015.2
20260831103750 57 70 2.6 7.0 0.00 0.00 0.00 35 1015.3
20260831103239 57 42 4.3 7.0 0.00 0.00 0.00 36 1015.3
20260831102751 57 84 3.5 7.0 0.00 0.00 0.00 37 1015.3
20260831102251 57 61 2.6 7.0 0.00 0.00 0.00 37 1015.3
20260831100750 58 62 3.5 7.0 0.00 0.00 0.00 38 1015.5
20260831100250 58 48 3.5 6.1 0.00 0.00 0.00 38 1015.4
20260831095750 58 69 4.3 6.1 0.00 0.00 0.00 38 1015.5
20260831095250 58 68 3.5 7.0 0.00 0.00 0.00 38 1015.6
20260831094750 58 70 3.5 7.0 0.00 0.00 0.00 39 1015.6
20260831094250 58 68 4.3 7.0 0.00 0.00 0.00 40 1015.6
20260831093750 58 63 4.3 6.1 0.00 0.00 0.00 40 1015.6
20260831093250 58 73 4.3 7.0 0.00 0.00 0.00 40 1015.7
20260831092750 58 64 2.6 7.0 0.00 0.00 0.00 40 1015.7
20260831092249 58 73 3.5 7.0 0.00 0.00 0.00 40 1015.7
20260831091750 58 80 6.1 7.0 0.00 0.00 0.00 40 1015.8
20260831090750 58 45 4.3 7.8 0.00 0.00 0.00 40 1015.9
20260831090239 59 65 2.6 7.8 0.00 0.00 0.00 40 1016.1
20260831085749 59 73 3.5 7.0 0.00 0.00 0.00 41 1016.1
20260831085249 58 74 4.3 7.8 0.00 0.00 0.00 40 1015.9
20260831084749 58 67 5.2 7.8 0.00 0.00 0.00 39 1016.1
20260831084249 59 74 3.5 7.0 0.00 0.00 0.00 39 1016.3
20260831083749 59 61 4.3 7.0 0.00 0.00 0.00 39 1016.3
20260831083238 59 31 3.5 7.0 0.00 0.00 0.00 40 1016.3
20260831082749 59 79 2.6 7.0 0.00 0.00 0.00 40 1016.3
20260831082249 59 59 3.5 6.1 0.00 0.00 0.00 40 1016.4
20260831081749 59 69 3.5 6.1 0.00 0.00 0.00 40 1016.4
20260831081249 59 57 4.3 7.0 0.00 0.00 0.00 40 1016.4
20260831080749 59 61 4.3 7.0 0.00 0.00 0.00 40 1016.4
20260831080249 59 70 2.6 7.0 0.00 0.00 0.00 40 1016.4
20260831075749 59 55 4.3 7.0 0.00 0.00 0.00 40 1016.4
20260831075248 59 63 4.3 7.0 0.00 0.00 0.00 40 1016.4
20260831074748 59 44 3.5 7.0 0.00 0.00 0.00 40 1016.5
20260831074248 59 51 3.5 6.1 0.00 0.00 0.00 40 1016.4
20260831073749 59 67 4.3 6.1 0.00 0.00 0.00 40 1016.4
20260831073238 59 40 4.3 5.2 0.00 0.00 0.00 40 1016.4
20260831072248 60 64 3.5 5.2 0.00 0.00 0.00 39 1016.3
20260831071738 60 49 2.6 5.2 0.00 0.00 0.00 39 1016.4
20260831070748 61 42 2.6 6.1 0.00 0.00 0.00 38 1016.7
20260831070248 61 51 2.6 6.1 0.00 0.00 0.00 38 1016.7
20260831065748 61 75 4.3 7.0 0.00 0.00 0.00 39 1016.7
20260831065248 61 49 3.5 7.0 0.00 0.00 0.00 40 1016.7
20260831064748 61 78 4.3 7.0 0.00 0.00 0.00 41 1016.7
20260831064248 61 61 4.3 6.1 0.00 0.00 0.00 41 1016.7
20260831063748 61 50 3.5 6.1 0.00 0.00 0.00 41 1016.7
20260831063237 61 77 3.5 6.1 0.00 0.00 0.00 42 1016.7
20260831061747 61 44 2.6 6.1 0.00 0.00 0.00 42 1016.6
20260831061248 61 52 2.6 6.1 0.00 0.00 0.00 43 1016.6
20260831060748 61 55 2.6 4.3 0.00 0.00 0.00 42 1016.5
20260831060237 61 55 2.6 6.1 0.00 0.00 0.00 42 1016.5
20260831055747 61 57 1.7 6.1 0.00 0.00 0.00 42 1016.5
20260831055247 61 55 1.7 6.1 0.00 0.00 0.00 42 1016.4
20260831054747 62 64 2.6 4.3 0.00 0.00 0.00 43 1016.4
20260831054247 62 74 2.6 4.3 0.00 0.00 0.00 43 1016.4
20260831053748 62 70 3.5 5.2 0.00 0.00 0.00 42 1016.4
20260831053236 62 52 1.7 5.2 0.00 0.00 0.00 42 1016.3
20260831052747 62 51 4.3 6.1 0.00 0.00 0.00 43 1016.3
20260831052247 62 43 3.5 6.1 0.00 0.00 0.00 43 1016.3
20260831051747 62 39 3.5 5.2 0.00 0.00 0.00 43 1016.3
20260831051247 62 39 4.3 4.3 0.00 0.00 0.00 44 1016.3
20260831050247 62 55 1.7 4.3 0.00 0.00 0.00 44 1016.3
20260831045747 62 52 2.6 4.3 0.00 0.00 0.00 45 1016.1
20260831045247 63 66 2.6 4.3 0.00 0.00 0.00 45 1016.1
20260831044747 63 63 1.7 4.3 0.00 0.00 0.00 45 1016.0
20260831044247 63 53 2.6 4.3 0.00 0.00 0.00 46 1015.9
20260831043236 63 33 2.6 5.2 0.00 0.00 0.00 46 1015.9
20260831042246 64 71 3.5 6.1 0.00 0.00 0.00 46 1016.3
20260831041747 64 68 3.5 6.1 0.00 0.00 0.00 47 1016.3
20260831041246 64 66 1.7 6.1 0.00 0.00 0.00 48 1016.3
20260831040746 65 76 3.5 6.1 0.00 0.00 0.00 49 1016.3
20260831040246 65 76 2.6 6.1 0.00 0.00 0.00 50 1016.3
20260831035746 65 53 2.6 6.1 0.00 0.00 0.00 50 1015.9
20260831034246 65 76 4.3 6.1 0.00 0.00 0.00 51 1015.6
20260831033746 66 65 1.7 4.3 0.00 0.00 0.00 49 1015.6
20260831032746 67 59 1.7 4.3 0.00 0.00 0.00 48 1015.8
20260831031746 67 61 3.5 5.2 0.00 0.00 0.00 48 1015.6
20260831031245 68 74 3.5 4.3 0.00 0.00 0.00 48 1015.7
20260831030745 69 71 1.7 4.3 0.00 0.00 0.00 47 1015.9
20260831030245 69 59 3.5 3.5 0.00 0.00 0.00 47 1015.8
20260831025245 70 317 0.9 2.6 0.00 0.00 0.00 45 1014.6
20260831024745 71 253 0.0 2.6 0.00 0.00 0.00 45 1015.0
20260831024245 72 252 0.0 0.0 0.00 0.00 0.00 44 1014.9
20260831023745 73 252 0.0 0.0 0.00 0.00 0.00 43 1015.2
20260831023245 73 252 0.0 0.0 0.00 0.00 0.00 42 1015.0
20260831022745 74 252 0.0 0.0 0.00 0.00 0.00 42 1015.0
20260831022245 75 252 0.0 0.0 0.00 0.00 0.00 41 1015.2
20260831021245 76 252 0.0 0.0 0.00 0.00 0.00 40 1015.1
20260831020745 76 253 0.0 0.0 0.00 0.00 0.00 37 1015.1
20260831020245 77 253 0.0 0.0 0.00 0.00 0.00 37 1015.2
20260831014745 78 253 0.0 4.3 0.00 0.00 0.00 36 1014.1
20260831014245 79 252 2.6 6.1 0.00 0.00 0.00 35 1014.1
20260831013744 79 225 2.6 7.0 0.00 0.00 0.00 35 1014.2
20260831013244 80 249 1.7 7.0 0.00 0.00 0.00 32 1014.2
20260831012744 80 249 3.5 7.8 0.00 0.00 0.00 31 1014.2
20260831012244 81 237 0.9 7.8 0.00 0.00 0.00 30 1014.3
20260831011744 82 244 2.6 7.8 0.00 0.00 0.00 28 1014.3
20260831011244 82 232 0.0 7.8 0.00 0.00 0.00 28 1014.3
20260831010744 83 248 0.0 8.7 0.00 0.00 0.00 27 1014.5
20260831010244 83 254 6.1 8.7 0.00 0.00 0.00 27 1014.5
20260831005744 83 244 1.7 7.8 0.00 0.00 0.00 27 1014.3
20260831005244 83 238 3.5 8.7 0.00 0.00 0.00 26 1014.3
20260831004244 84 261 1.7 9.6 0.00 0.00 0.00 26 1014.3
20260831003744 84 246 7.8 10.4 0.00 0.00 0.00 26 1014.5
20260831003244 85 228 7.8 10.4 0.00 0.00 0.00 25 1014.5
20260831002744 85 250 4.3 10.4 0.00 0.00 0.00 25 1014.5
20260831002244 86 198 2.6 8.7 0.00 0.00 0.00 25 1014.8
20260831001744 86 212 3.5 9.6 0.00 0.00 0.00 24 1014.8
20260831001232 86 241 7.0 10.4 0.00 0.00 0.00 25 1014.8
20260831000243 87 249 7.8 11.3 0.00 0.00 0.00 25 1014.7
20260830235743 89 233 9.6 11.3 0.00 0.00 0.00 24 1015.1
20260830235243 89 238 5.2 10.4 0.00 0.00 0.00 24 1015.0
20260830234743 89 253 8.7 10.4 0.00 0.00 0.00 24 1015.1
20260830234243 89 209 2.6 10.4 0.00 0.00 0.00 23 1015.0
20260830233743 89 215 2.6 10.4 0.00 0.00 0.00 23 1015.1
20260830233243 89 267 1.7 9.6 0.00 0.00 0.00 23 1015.0
20260830232743 90 215 4.3 9.6 0.00 0.00 0.00 22 1015.2
20260830232243 90 269 5.2 10.4 0.00 0.00 0.00 22 1015.2
20260830231743 90 202 7.0 10.4 0.00 0.00 0.00 23 1015.3
20260830231242 90 227 6.1 11.3 0.00 0.00 0.00 23 1015.2
20260830230742 90 230 1.7 11.3 0.00 0.00 0.00 23 1015.2
20260830230243 90 236 5.2 10.4 0.00 0.00 0.00 22 1015.0
20260830225742 90 221 5.2 10.4 0.00 0.00 0.00 23 1015.1
20260830225243 91 242 5.2 11.3 0.00 0.00 0.00 22 1015.3
20260830224743 91 247 2.6 11.3 0.00 0.00 0.00 23 1015.3
20260830224243 91 229 3.5 13.9 0.00 0.00 0.00 23 1015.3
20260830223743 91 223 6.1 13.9 0.00 0.00 0.00 24 1015.3
20260830223243 91 244 6.1 10.4 0.00 0.00 0.00 24 1015.3
20260830222743 90 227 5.2 10.4 0.00 0.00 0.00 25 1015.2
20260830222242 90 209 9.6 10.4 0.00 0.00 0.00 25 1015.1
20260830221242 92 208 7.0 9.6 0.00 0.00 0.00 25 1015.4
20260830220242 91 233 4.3 13.0 0.00 0.00 0.00 26 1015.6
20260830215242 92 264 5.2 9.6 0.00 0.00 0.00 26 1015.6
20260830214742 92 259 7.8 13.0 0.00 0.00 0.00 27 1015.7
20260830214242 92 234 2.6 13.0 0.00 0.00 0.00 28 1015.7
20260830213744 92 188 2.6 11.3 0.00 0.00 0.00 29 1015.8
20260830212241 91 222 4.3 11.3 0.00 0.00 0.00 30 1015.8
20260830211741 91 228 4.3 12.2 0.00 0.00 0.00 32 1015.9
20260830211241 90 277 0.9 13.9 0.00 0.00 0.00 32 1015.8
20260830205741 92 247 7.0 12.2 0.00 0.00 0.00 30 1016.5
20260830205241 92 242 3.5 12.2 0.00 0.00 0.00 30 1016.4
20260830204741 92 240 4.3 11.3 0.00 0.00 0.00 30 1016.5
20260830204241 92 240 2.6 12.2 0.00 0.00 0.00 30 1016.6
20260830203741 93 241 4.3 12.2 0.00 0.00 0.00 30 1016.7
20260830203241 93 190 2.6 12.2 0.00 0.00 0.00 31 1016.7
20260830202740 93 227 5.2 12.2 0.00 0.00 0.00 31 1016.6
20260830202241 92 209 4.3 11.3 0.00 0.00 0.00 31 1016.6
20260830201740 93 229 3.5 11.3 0.00 0.00 0.00 30 1016.7
20260830200741 91 178 1.7 10.4 0.00 0.00 0.00 31 1016.6
20260830195740 91 223 0.9 11.3 0.00 0.00 0.00 30 1016.9
20260830195241 92 225 1.7 13.0 0.00 0.00 0.00 29 1016.9
20260830194740 92 245 1.7 13.0 0.00 0.00 0.00 29 1016.9
20260830194240 92 257 4.3 8.7 0.00 0.00 0.00 29 1016.7
20260830193741 91 238 5.2 10.4 0.00 0.00 0.00 30 1016.8
20260830193240 92 222 6.1 11.3 0.00 0.00 0.00 30 1017.0
20260830192740 92 249 3.5 11.3 0.00 0.00 0.00 29 1016.8
20260830192240 92 296 1.7 10.4 0.00 0.00 0.00 28 1016.8
20260830191740 92 268 2.6 10.4 0.00 0.00 0.00 28 1016.9
20260830191240 91 254 6.1 11.3 0.00 0.00 0.00 29 1017.0
20260830190240 92 298 3.5 10.4 0.00 0.00 0.00 27 1017.1
20260830185740 92 215 0.9 13.9 0.00 0.00 0.00 28 1017.3
20260830185240 91 234 5.2 13.9 0.00 0.00 0.00 28 1017.1
20260830184739 91 249 6.1 9.6 0.00 0.00 0.00 28 1017.2
20260830184240 92 208 9.6 9.6 0.00 0.00 0.00 28 1017.5
20260830183739 91 219 0.0 12.2 0.00 0.00 0.00 28 1017.2
20260830182739 91 221 0.0 13.0 0.00 0.00 0.00 28 1017.2
20260830182239 91 239 7.8 13.0 0.00 0.00 0.00 27 1017.3
20260830181740 91 254 2.6 9.6 0.00 0.00 0.00 27 1017.4
20260830181239 91 234 3.5 10.4 0.00 0.00 0.00 27 1017.5
20260830180739 91 268 2.6 10.4 0.00 0.00 0.00 26 1017.3
20260830180239 91 238 9.6 9.6 0.00 0.00 0.00 26 1017.4
20260830175739 91 192 1.7 6.1 0.00 0.00 0.00 25 1017.3
20260830174739 90 237 0.9 9.6 0.00 0.00 0.00 25 1017.2
20260830174239 90 223 5.2 7.8 0.00 0.00 0.00 25 1017.2
20260830173239 90 207 0.9 7.8 0.00 0.00 0.00 25 1017.0
20260830172739 90 262 1.7 7.0 0.00 0.00 0.00 25 1016.9
20260830172239 89 207 2.6 7.0 0.00 0.00 0.00 26 1016.7
20260830171728 89 255 0.9 7.0 0.00 0.00 0.00 25 1016.7
20260830171238 88 229 2.6 9.6 0.00 0.00 0.00 26 1016.7
20260830170738 88 250 7.0 9.6 0.00 0.00 0.00 26 1016.7
20260830170238 88 244 2.6 8.7 0.00 0.00 0.00 26 1016.7
20260830165738 88 226 1.7 8.7 0.00 0.00 0.00 27 1016.8
20260830164738 88 236 1.7 7.8 0.00 0.00 0.00 27 1016.7
20260830164238 87 248 1.7 7.0 0.00 0.00 0.00 28 1016.6
20260830163738 87 234 4.3 7.0 0.00 0.00 0.00 28 1016.5
20260830163238 86 238 2.6 7.0 0.00 0.00 0.00 30 1016.3
20260830162738 86 243 0.0 8.7 0.00 0.00 0.00 30 1016.3
20260830162237 86 254 3.5 8.7 0.00 0.00 0.00 29 1016.3
20260830161727 86 240 0.0 6.1 0.00 0.00 0.00 30 1016.3
20260830161237 86 285 0.9 7.0 0.00 0.00 0.00 30 1016.3
20260830160737 85 261 0.0 7.8 0.00 0.00 0.00 30 1016.3
20260830160238 85 246 6.1 7.8 0.00 0.00 0.00 31 1016.3
20260830155737 86 250 4.3 6.1 0.00 0.00 0.00 33 1016.8
20260830154737 85 87 0.0 0.0 0.00 0.00 0.00 34 1016.8
20260830154237 84 86 0.0 0.0 0.00 0.00 0.00 35 1016.6
20260830153737 83 82 0.0 0.0 0.00 0.00 0.00 36 1016.6
20260830153237 82 82 0.0 0.0 0.00 0.00 0.00 36 1016.4
20260830152737 82 82 0.0 0.0 0.00 0.00 0.00 36 1016.3
20260830152237 81 82 0.0 0.0 0.00 0.00 0.00 37 1016.2
20260830151737 80 82 0.0 2.6 0.00 0.00 0.00 39 1016.2
20260830151237 79 82 0.0 3.5 0.00 0.00 0.00 42 1016.2
20260830150237 75 83 1.7 4.3 0.00 0.00 0.00 47 1015.7
20260830145737 73 82 1.7 5.2 0.00 0.00 0.00 49 1016.1
20260830144737 71 90 3.5 4.3 0.00 0.00 0.00 52 1016.0
20260830144237 69 71 0.9 3.5 0.00 0.00 0.00 53 1015.8
20260830143737 68 78 1.7 4.3 0.00 0.00 0.00 55 1015.5
20260830143236 67 93 2.6 6.1 0.00 0.00 0.00 56 1015.6
20260830142736 66 83 2.6 6.1 0.00 0.00 0.00 57 1015.3
20260830142237 65 75 3.5 6.1 0.00 0.00 0.00 58 1015.3
20260830141737 65 82 4.3 6.1 0.00 0.00 0.00 59 1015.3
20260830141236 64 76 4.3 5.2 0.00 0.00 0.00 60 1015.0
20260830140736 63 65 3.5 5.2 0.00 0.00 0.00 61 1015.0
20260830140236 63 55 2.6 5.2 0.00 0.00 0.00 61 1015.0
20260830135225 62 58 3.5 6.1 0.00 0.00 0.00 61 1015.1
20260830133736 62 51 3.5 6.1 0.00 0.00 0.00 63 1015.0
20260830132736 62 62 4.3 6.1 0.00 0.00 0.00 63 1014.7
20260830132235 62 58 3.5 6.1 0.00 0.00 0.00 63 1014.7
20260830131235 62 81 2.6 6.1 0.00 0.00 0.00 63 1014.7
20260830130235 62 81 2.6 7.0 0.00 0.00 0.00 64 1014.7
20260830125736 62 80 6.1 7.0 0.00 0.00 0.00 64 1015.4
20260830125236 62 73 3.5 7.0 0.00 0.00 0.00 64 1015.3
20260830124735 62 40 4.3 7.0 0.00 0.00 0.00 64 1015.3
20260830124235 62 59 1.7 5.2 0.00 0.00 0.00 64 1015.4
20260830123235 62 54 3.5 6.1 0.00 0.00 0.00 65 1015.4
20260830122724 61 67 3.5 5.2 0.00 0.00 0.00 65 1015.3
20260830122235 61 63 2.6 6.1 0.00 0.00 0.00 65 1015.5
20260830121235 62 51 3.5 7.0 0.00 0.00 0.00 64 1015.3
20260830120735 62 59 3.5 7.0 0.00 0.00 0.00 64 1015.3
20260830120234 62 48 3.5 7.0 0.00 0.00 0.00 64 1015.3
20260830115735 62 74 3.5 7.0 0.00 0.00 0.00 64 1015.7
20260830115235 62 61 4.3 7.0 0.00 0.00 0.00 64 1015.7
20260830114735 62 30 3.5 5.2 0.00 0.00 0.00 64 1015.8
20260830114234 62 46 2.6 5.2 0.00 0.00 0.00 64 1015.7
20260830113734 62 39 2.6 4.3 0.00 0.00 0.00 64 1015.6
20260830113234 62 55 3.5 4.3 0.00 0.00 0.00 64 1015.7
20260830112234 61 60 3.5 6.1 0.00 0.00 0.00 65 1015.7
20260830111734 62 58 2.6 6.1 0.00 0.00 0.00 65 1015.7
20260830110734 61 34 3.5 6.1 0.00 0.00 0.00 65 1015.7